period_start,C,m1,H,J0,J1,J2,J3,J4,J5,JA,JB,JC,JD,JJ,JK,JN,#
2018-10-13 00:00:56,0.00,0.00,0.00,24.45,29.00,30.86,0.00,0.31,1026.80,2018.04,3678.98,3056.99,3517.94,0.00,0.00,0.00,0000 0000 0000 A000 020008
2018-10-13 00:05:57,0.00,0.00,0.00,24.45,29.00,30.86,0.00,0.30,1026.77,2018.10,3678.98,3057.00,3517.98,0.00,0.00,0.00,0000 0000 0000 A000 020008
2018-10-13 00:10:58,0.00,0.00,0.00,24.45,29.00,30.84,0.00,0.28,1026.72,2018.11,3678.99,3057.01,3517.98,0.00,0.00,0.00,0000 0000 0000 A000 020008
2018-10-13 00:16:00,0.00,0.00,0.00,24.45,29.00,30.82,0.00,0.31,1026.74,2018.22,3678.99,3057.04,3517.99,0.00,0.00,0.00,0000 0000 0000 A000 020008
2018-10-13 00:21:01,0.00,0.00,0.00,24.44,28.98,30.86,0.00,0.28,1026.81,2018.46,3678.99,3057.07,3517.99,0.00,0.00,0.00,0000 0000 0000 A000 020008
2018-10-13 00:26:02,0.00,0.00,0.00,24.43,28.97,30.88,0.00,0.28,1026.83,2018.38,3679.00,3057.07,3517.99,0.00,0.00,0.00,0000 0000 0000 A000 020008
2018-10-13 00:31:04,0.00,0.00,0.00,24.43,28.97,30.84,0.00,0.30,1026.81,2018.35,3679.01,3057.09,3517.99,0.00,0.00,0.00,0000 0000 0000 A000 020008
2018-10-13 00:36:04,0.00,0.00,0.00,24.42,28.97,30.84,0.00,0.28,1026.80,2018.48,3679.00,3057.16,3517.99,0.00,0.00,0.00,0000 0000 0000 A000 020008
2018-10-13 00:41:05,0.00,0.00,0.00,24.42,28.96,30.85,0.00,0.28,1026.85,2018.71,3679.01,3057.31,3517.99,0.00,0.00,0.00,0000 0000 0000 A000 020008
2018-10-13 00:46:07,0.00,0.00,0.00,24.42,28.95,30.81,0.00,0.29,1026.87,2018.89,3679.04,3057.58,3518.00,0.00,0.00,0.00,0000 0000 0000 A000 020008
2018-10-13 00:51:08,0.00,0.00,0.00,24.42,28.95,30.81,0.00,0.34,1026.85,2018.75,3679.01,3057.36,3518.00,0.00,0.00,0.00,0000 0000 0000 A000 020008
2018-10-13 00:56:10,0.00,0.00,0.00,24.40,28.95,30.84,0.00,0.33,1026.86,2018.53,3679.00,3057.13,3518.00,0.00,0.00,0.00,0000 0000 0000 A000 020008
2018-10-13 01:01:11,0.00,0.00,0.00,24.37,28.95,30.87,0.00,0.33,1026.87,2018.64,3679.02,3057.32,3518.00,0.00,0.00,0.00,0000 0000 0000 A000 020008
2018-10-13 01:06:12,0.00,0.00,0.00,24.37,28.94,30.80,0.00,0.32,1026.87,2018.87,3679.11,3057.72,3518.04,0.00,0.00,0.00,0000 0000 0000 A000 020008
2018-10-13 01:11:13,0.00,0.00,0.00,24.37,28.92,30.77,0.00,0.33,1026.87,2018.94,3679.39,3057.97,3518.07,0.00,0.00,0.00,0000 0000 0000 A000 020008
2018-10-13 01:16:14,0.00,0.00,0.00,24.37,28.92,30.78,0.00,0.31,1026.87,2018.94,3679.43,3057.97,3518.08,0.00,0.00,0.00,0000 0000 0000 A000 020008
2018-10-13 01:21:15,0.00,0.00,0.00,24.37,28.92,30.84,0.00,0.33,1026.87,2018.95,3679.15,3057.92,3518.04,0.00,0.00,0.00,0000 0000 0000 A000 020008
2018-10-13 01:26:16,0.00,0.00,0.00,24.37,28.92,30.77,0.00,0.33,1026.87,2018.93,3679.21,3057.91,3518.06,0.00,0.00,0.00,0000 0000 0000 A000 020008
2018-10-13 01:31:17,0.00,0.00,0.00,24.37,28.90,30.76,0.00,0.29,1026.88,2018.96,3679.53,3057.98,3518.15,0.00,0.00,0.00,0000 0000 0000 A000 020008
2018-10-13 01:36:18,0.00,0.00,0.00,24.37,28.90,30.77,0.00,0.29,1026.87,2018.97,3679.81,3057.98,3518.38,0.00,0.00,0.00,0000 0000 0000 A000 020008
2018-10-13 01:41:19,0.00,0.00,0.00,24.37,28.90,30.80,0.00,0.34,1026.87,2018.99,3679.95,3057.99,3518.77,0.00,0.00,0.00,0000 0000 0000 A000 020008
2018-10-13 01:46:20,0.00,0.00,0.00,24.37,28.90,30.80,0.00,0.31,1026.87,2018.99,3679.97,3057.99,3518.84,0.00,0.00,0.00,0000 0000 0000 A000 020008
2018-10-13 01:51:22,0.00,0.00,0.00,24.37,28.90,30.77,0.00,0.32,1026.89,2018.99,3679.90,3057.99,3518.69,0.00,0.00,0.00,0000 0000 0000 A000 020008
2018-10-13 01:56:23,0.00,0.00,0.00,24.37,28.89,30.78,0.00,0.32,1026.89,2018.99,3679.95,3057.99,3518.81,0.00,0.00,0.00,0000 0000 0000 A000 020008
2018-10-13 02:01:24,0.00,0.00,0.00,24.37,28.88,30.81,-0.00,0.37,1026.89,2018.99,3679.98,3057.99,3518.84,0.00,0.00,0.00,0000 0000 0000 A000 020008
2018-10-13 02:06:25,0.00,0.00,0.00,24.39,28.87,30.86,0.00,0.35,1026.91,2018.99,3679.95,3057.99,3518.77,0.00,0.00,0.00,0000 0000 0000 A000 020008
2018-10-13 02:11:27,0.00,0.00,0.00,24.40,28.87,30.82,0.00,0.36,1026.93,2018.99,3679.89,3057.98,3518.62,0.00,0.00,0.00,0000 0000 0000 A000 020008
2018-10-13 02:16:28,0.00,0.00,0.00,24.40,28.87,30.77,0.00,0.32,1026.99,2018.98,3679.86,3057.99,3518.53,0.00,0.00,0.00,0000 0000 0000 A000 020008
2018-10-13 02:21:30,0.00,0.00,0.00,24.40,28.87,30.79,0.00,0.31,1027.16,2018.99,3679.86,3057.99,3518.60,0.00,0.00,0.00,0000 0000 0000 A000 020008
2018-10-13 02:26:31,0.00,0.00,0.00,24.40,28.87,30.82,0.00,0.31,1027.30,2018.99,3679.95,3057.99,3518.82,0.00,0.00,0.00,0000 0000 0000 A000 020008
2018-10-13 02:31:32,0.00,0.00,0.00,24.40,28.87,30.83,0.00,0.28,1027.32,2018.99,3679.97,3057.99,3518.95,0.00,0.00,0.00,0000 0000 0000 A000 020008
2018-10-13 02:36:33,0.00,0.00,0.00,24.40,28.87,30.79,0.00,0.29,1027.35,2018.99,3679.98,3057.99,3518.91,0.00,0.00,0.00,0000 0000 0000 A000 020008
2018-10-13 02:41:34,0.00,0.00,0.00,24.40,28.87,30.80,0.00,0.27,1027.36,2018.99,3679.99,3057.99,3518.98,0.00,0.00,0.00,0000 0000 0000 A000 020008
2018-10-13 02:46:35,0.00,0.00,0.00,24.40,28.86,30.78,0.00,0.31,1027.35,2018.99,3679.98,3057.99,3518.95,0.00,0.00,0.00,0000 0000 0000 A000 020008
2018-10-13 02:51:37,0.00,0.00,0.00,24.40,28.86,30.79,0.00,0.29,1027.36,2018.99,3679.98,3057.99,3518.97,0.00,0.00,0.00,0000 0000 0000 A000 020008
2018-10-13 02:56:37,0.00,0.00,0.00,24.40,28.86,30.81,0.00,0.33,1027.36,2018.99,3679.98,3057.99,3518.96,0.00,0.00,0.00,0000 0000 0000 A000 020008
2018-10-13 03:01:38,0.00,0.00,0.00,24.40,28.86,30.79,0.00,0.30,1027.36,2018.99,3679.98,3057.99,3518.98,0.00,0.00,0.00,0000 0000 0000 A000 020008
2018-10-13 03:06:40,0.00,0.00,0.00,24.40,28.86,30.78,0.00,0.32,1027.36,2018.99,3679.98,3058.00,3518.97,0.00,0.00,0.00,0000 0000 0000 A000 020008
2018-10-13 03:11:41,0.00,0.00,0.00,24.41,28.86,30.84,0.00,0.33,1027.36,2018.99,3679.99,3058.00,3518.98,0.00,0.00,0.00,0000 0000 0000 A000 020008
2018-10-13 03:16:42,0.00,0.00,0.00,24.42,28.86,30.80,0.00,0.33,1027.36,2018.99,3679.99,3058.00,3518.97,0.00,0.00,0.00,0000 0000 0000 A000 020008
2018-10-13 03:21:43,0.00,0.00,0.00,24.42,28.86,30.81,0.00,0.34,1027.37,2018.99,3679.99,3058.00,3518.98,0.00,0.00,0.00,0000 0000 0000 A000 020008
2018-10-13 03:26:45,0.00,0.00,0.00,24.42,28.86,30.88,0.00,0.33,1027.37,2018.99,3679.99,3058.00,3518.99,0.00,0.00,0.00,0000 0000 0000 A000 020008
2018-10-13 03:31:46,0.00,0.00,0.00,24.42,28.86,30.82,0.00,0.32,1027.40,2018.99,3679.99,3058.00,3518.98,0.00,0.00,0.00,0000 0000 0000 A000 020008
2018-10-13 03:36:47,0.00,0.00,0.00,24.42,28.86,30.80,0.00,0.35,1027.41,2018.99,3679.97,3058.00,3518.98,0.00,0.00,0.00,0000 0000 0000 A000 020008
2018-10-13 03:41:48,0.00,0.00,0.00,24.42,28.86,30.84,0.00,0.28,1027.48,2018.99,3679.98,3058.00,3518.95,0.00,0.00,0.00,0000 0000 0000 A000 020008
2018-10-13 03:46:49,0.00,0.00,0.00,24.42,28.86,30.81,0.00,0.31,1027.62,2018.99,3679.99,3058.01,3518.98,0.00,0.00,0.00,0000 0000 0000 A000 020008
2018-10-13 03:51:50,0.00,0.00,0.00,24.42,28.86,30.78,0.00,0.38,1027.62,2018.99,3679.99,3058.01,3518.99,0.00,0.00,0.00,0000 0000 0000 A000 020008
2018-10-13 03:56:52,0.00,0.00,0.00,24.42,28.87,30.79,0.00,0.33,1027.64,2018.99,3679.99,3058.00,3518.98,0.00,0.00,0.00,0000 0000 0000 A000 020008
2018-10-13 04:01:53,0.00,0.00,0.00,24.42,28.87,30.82,0.00,0.36,1027.73,2018.99,3679.98,3058.00,3518.97,0.00,0.00,0.00,0000 0000 0000 A000 020008
2018-10-13 04:06:54,0.00,0.00,0.00,24.42,28.87,30.83,0.00,0.35,1027.72,2018.99,3679.97,3058.00,3518.93,0.00,0.00,0.00,0000 0000 0000 A000 020008
2018-10-13 04:11:55,0.00,0.00,0.00,24.42,28.87,30.82,0.00,0.33,1027.74,2018.99,3679.98,3058.00,3518.93,0.00,0.00,0.00,0000 0000 0000 A000 020008
2018-10-13 04:16:56,0.00,0.00,0.00,24.42,28.87,30.84,0.00,0.33,1027.75,2018.99,3679.99,3058.00,3518.98,0.00,0.00,0.00,0000 0000 0000 A000 020008
2018-10-13 04:21:57,0.00,0.00,0.00,24.42,28.87,30.84,0.00,0.32,1027.76,2018.99,3679.99,3058.00,3518.98,0.00,0.00,0.00,0000 0000 0000 A000 020008
2018-10-13 04:26:58,0.00,0.00,0.00,24.42,28.87,30.81,0.00,0.30,1027.81,2018.99,3679.97,3058.00,3518.96,0.00,0.00,0.00,0000 0000 0000 A000 020008
2018-10-13 04:32:00,0.00,0.00,0.00,24.42,28.87,30.84,0.00,0.29,1027.84,2018.99,3679.99,3058.00,3518.97,0.00,0.00,0.00,0000 0000 0000 A000 020008
2018-10-13 04:37:01,0.00,0.00,0.00,24.42,28.87,30.79,0.00,0.35,1027.84,2018.99,3679.99,3058.00,3518.97,0.00,0.00,0.00,0000 0000 0000 A000 020008
2018-10-13 04:42:02,0.00,0.00,0.00,24.42,28.87,30.78,0.00,0.36,1027.85,2018.99,3679.98,3058.00,3518.97,0.00,0.00,0.00,0000 0000 0000 A000 020008
2018-10-13 04:47:03,0.00,0.00,0.00,24.42,28.87,30.80,0.00,0.32,1027.85,2018.99,3679.98,3058.00,3518.95,0.00,0.00,0.00,0000 0000 0000 A000 020008
2018-10-13 04:52:04,0.00,0.00,0.00,24.42,28.87,30.83,0.00,0.31,1027.85,2018.99,3679.98,3058.00,3518.93,0.00,0.00,0.00,0000 0000 0000 A000 020008
2018-10-13 04:57:06,0.00,0.00,0.00,24.42,28.87,30.82,0.00,0.33,1027.85,2018.99,3679.98,3058.00,3518.94,0.00,0.00,0.00,0000 0000 0000 A000 020008
2018-10-13 05:02:07,0.00,0.00,0.00,24.42,28.87,30.86,0.00,0.29,1027.85,2018.99,3679.97,3058.00,3518.93,0.00,0.00,0.00,0000 0000 0000 A000 020008
2018-10-13 05:07:08,0.00,0.00,0.00,24.42,28.87,30.83,0.00,0.34,1027.86,2018.99,3679.98,3058.00,3518.96,0.00,0.00,0.00,0000 0000 0000 A000 020008
2018-10-13 05:12:09,0.00,0.00,0.00,24.41,28.87,30.84,0.00,0.30,1027.86,2018.99,3679.98,3058.00,3518.97,0.00,0.00,0.00,0000 0000 0000 A000 020008
2018-10-13 05:17:11,0.00,0.00,0.00,24.40,28.87,30.81,0.00,0.33,1027.87,2018.99,3679.99,3058.00,3518.98,0.00,0.00,0.00,0000 0000 0000 A000 020008
2018-10-13 05:22:12,0.00,0.00,0.00,24.40,28.87,30.80,0.00,0.38,1027.87,2018.99,3679.98,3058.00,3518.96,0.00,0.00,0.00,0000 0000 0000 A000 020008
2018-10-13 05:27:13,0.00,0.00,0.00,24.40,28.87,30.82,0.00,0.34,1027.89,2018.99,3679.99,3058.00,3518.94,0.00,0.00,0.00,0000 0000 0000 A000 020008
2018-10-13 05:32:14,0.00,0.00,0.00,24.40,28.87,30.78,0.00,0.32,1027.94,2018.99,3679.98,3058.00,3518.97,0.00,0.00,0.00,0000 0000 0000 A000 020008
2018-10-13 05:37:15,0.00,0.00,0.00,24.39,28.87,30.76,0.00,0.35,1028.12,2018.99,3679.98,3058.00,3518.98,0.00,0.00,0.00,0000 0000 0000 A000 020008
2018-10-13 05:42:16,0.00,0.00,0.00,24.38,28.87,30.78,0.00,0.32,1028.19,2018.99,3679.99,3058.01,3518.99,0.00,0.00,0.00,0000 0000 0000 A000 020008
2018-10-13 05:47:17,0.00,0.00,0.00,24.37,28.87,30.82,0.00,0.30,1028.19,2018.99,3679.99,3058.01,3518.98,0.00,0.00,0.00,0000 0000 0000 A000 020008
2018-10-13 05:52:19,0.00,0.00,0.00,24.37,28.87,30.84,0.00,0.29,1028.30,2018.99,3679.99,3058.01,3518.99,0.00,0.00,0.00,0000 0000 0000 A000 020008
2018-10-13 05:57:20,0.00,0.00,0.00,24.38,28.86,30.80,0.00,0.31,1028.33,2018.99,3679.98,3058.00,3518.97,0.00,0.00,0.00,0000 0000 0000 A000 020008
2018-10-13 06:02:21,0.00,0.00,0.00,24.38,28.86,30.82,0.00,0.31,1028.33,2018.99,3679.98,3058.01,3518.98,0.00,0.00,0.00,0000 0000 0000 A000 020008
2018-10-13 06:07:22,0.00,0.00,0.00,24.37,28.85,30.76,0.00,0.27,1028.33,2018.99,3679.99,3058.00,3518.97,0.00,0.00,0.00,0000 0000 0000 A000 020008
2018-10-13 06:12:23,0.00,0.00,0.00,24.38,28.85,30.82,0.00,0.28,1028.35,2018.99,3679.98,3058.00,3518.97,0.00,0.00,0.00,0000 0000 0000 A000 020008
2018-10-13 06:17:24,0.00,0.00,0.00,24.37,28.85,30.80,0.00,0.27,1028.36,2018.99,3679.98,3058.00,3518.97,0.00,0.00,0.00,0000 0000 0000 A000 020008
2018-10-13 06:22:25,0.00,0.00,0.00,24.37,28.85,30.78,0.00,0.28,1028.35,2018.99,3679.99,3058.00,3518.98,0.00,0.00,0.00,0000 0000 0000 A000 020008
2018-10-13 06:27:26,0.00,0.00,0.00,24.37,28.85,30.76,-0.00,0.27,1028.38,2018.99,3679.99,3058.01,3518.98,0.00,0.00,0.00,0000 0000 0000 A000 020008
2018-10-13 06:32:27,0.00,0.00,0.00,24.37,28.85,30.72,0.00,0.26,1028.43,2018.99,3679.99,3058.01,3518.99,0.00,0.00,0.00,0000 0000 0000 A000 020008
2018-10-13 06:37:28,0.00,0.00,0.00,24.37,28.85,30.74,-0.00,0.29,1028.44,2018.99,3679.99,3058.01,3518.98,0.00,0.00,0.00,0000 0000 0000 A000 020008
2018-10-13 06:42:29,0.00,0.00,0.00,24.37,28.85,30.72,0.00,0.26,1028.60,2018.99,3679.99,3058.00,3518.97,0.00,0.00,0.00,0000 0000 0000 A000 020008
2018-10-13 06:47:31,0.00,0.00,0.00,24.37,28.85,30.78,0.00,0.28,1028.70,2018.99,3679.98,3058.00,3518.97,0.00,0.00,0.00,0000 0000 0000 A000 020008
2018-10-13 06:52:32,0.00,0.00,0.00,24.39,28.85,30.77,0.00,0.26,1028.77,2018.99,3679.98,3058.00,3518.97,0.00,0.00,0.00,0000 0000 0000 A000 020008
2018-10-13 06:57:34,0.00,0.00,0.00,24.40,28.85,30.72,0.00,0.27,1028.81,2018.99,3679.99,3058.01,3518.98,0.00,0.00,0.00,0000 0000 0000 A000 020008
2018-10-13 07:02:35,0.00,0.00,0.00,24.40,28.85,30.75,0.00,0.27,1028.79,2018.99,3679.99,3058.01,3518.98,0.00,0.00,0.00,0000 0000 0000 A000 020008
2018-10-13 07:07:37,0.00,0.00,0.00,24.40,28.85,30.81,0.00,0.27,1028.80,2018.99,3679.98,3058.00,3518.98,0.00,0.00,0.00,0000 0000 0000 A000 020008
2018-10-13 07:12:38,0.00,0.00,0.00,24.41,28.85,30.78,0.00,0.26,1028.81,2018.99,3679.99,3058.00,3518.98,0.00,0.00,0.00,0000 0000 0000 A000 020008
2018-10-13 07:17:39,0.00,0.00,0.00,24.42,28.85,30.81,-0.00,0.26,1028.82,2018.99,3679.99,3058.01,3518.98,0.00,0.00,0.00,0000 0000 0000 A000 020008
2018-10-13 07:22:40,0.00,0.00,0.00,24.42,28.85,30.83,-0.00,0.27,1028.82,2018.99,3679.99,3058.01,3518.98,0.00,0.00,0.00,0000 0000 0000 A000 020008
2018-10-13 07:27:41,0.00,0.00,0.00,24.42,28.85,30.82,0.00,0.28,1028.82,2018.99,3679.99,3058.00,3518.98,0.00,0.00,0.00,0000 0000 0000 A000 020008
2018-10-13 07:32:43,0.00,0.00,0.00,24.42,28.85,30.87,0.00,0.27,1028.82,2018.99,3679.98,3058.00,3518.97,0.00,0.00,0.00,0000 0000 0000 A000 020008
2018-10-13 07:37:44,0.00,0.00,0.00,24.42,28.85,30.84,0.00,0.26,1028.83,2018.98,3679.98,3058.00,3518.95,0.00,0.00,0.00,0000 0000 0000 A000 020008
2018-10-13 07:42:45,0.00,0.00,0.00,24.42,28.85,30.83,0.00,0.27,1028.83,2018.99,3679.99,3058.00,3518.99,0.00,0.00,0.00,0000 0000 0000 A000 020008
2018-10-13 07:47:46,0.00,0.00,0.00,24.41,28.85,30.80,0.00,0.26,1028.83,2018.99,3679.98,3058.00,3518.97,0.00,0.00,0.00,0000 0000 0000 A000 020008
2018-10-13 07:52:47,0.00,0.00,0.00,24.41,28.85,30.83,0.00,0.25,1028.83,2018.99,3679.97,3058.00,3518.94,0.00,0.00,0.00,0000 0000 0000 A000 020008
2018-10-13 07:57:48,0.00,0.00,0.00,24.41,28.85,30.81,0.00,0.26,1028.85,2018.99,3679.98,3058.00,3518.98,0.00,0.00,0.00,0000 0000 0000 A000 020008
2018-10-13 08:02:50,0.00,0.00,0.00,24.40,28.85,30.82,0.00,0.28,1028.92,2018.99,3679.99,3058.02,3518.99,0.00,0.00,0.00,0000 0000 0000 A000 020008
2018-10-13 08:07:51,0.00,0.00,0.00,24.41,28.85,30.85,-0.00,0.27,1029.10,2018.99,3679.99,3058.01,3518.99,0.00,0.00,0.00,0000 0000 0000 A000 020008
2018-10-13 08:12:52,0.00,0.00,0.00,24.42,28.85,30.85,0.00,0.25,1029.15,2018.99,3679.99,3058.00,3518.97,0.00,0.00,0.00,0000 0000 0000 A000 020008
2018-10-13 08:17:53,0.00,0.00,0.00,24.42,28.85,30.82,0.00,0.25,1029.19,2018.99,3679.99,3058.01,3518.97,0.00,0.00,0.00,0000 0000 0000 A000 020008
2018-10-13 08:22:55,0.00,0.00,0.00,24.42,28.86,30.88,0.00,0.25,1029.23,2018.99,3679.99,3058.00,3518.97,0.00,0.00,0.00,0000 0000 0000 A000 020008
2018-10-13 08:27:56,0.00,0.00,0.00,24.43,28.86,30.83,0.00,0.25,1029.30,2018.99,3679.99,3058.01,3518.97,0.00,0.00,0.00,0000 0000 0000 A000 020008
2018-10-13 08:32:57,0.00,0.00,0.00,24.45,28.87,30.82,-0.00,0.25,1029.31,2018.99,3679.99,3058.00,3518.99,0.00,0.00,0.00,0000 0000 0000 A000 020008
2018-10-13 08:37:58,0.00,0.00,0.00,24.45,28.87,30.81,0.00,0.27,1029.31,2018.99,3679.99,3058.01,3518.99,0.00,0.00,0.00,0000 0000 0000 A000 020008
2018-10-13 08:42:59,0.00,0.00,0.00,24.45,28.87,30.83,-0.00,0.26,1029.31,2018.99,3679.99,3058.00,3518.98,0.00,0.00,0.00,0000 0000 0000 A000 020008
2018-10-13 08:48:00,0.00,0.00,0.00,24.45,28.87,30.82,0.00,0.25,1029.31,2018.99,3679.99,3058.01,3518.98,0.00,0.00,0.00,0000 0000 0000 A000 020008
2018-10-13 08:53:02,0.00,0.00,0.00,24.45,28.87,30.82,0.00,0.25,1029.31,2018.99,3679.99,3058.01,3518.98,0.00,0.00,0.00,0000 0000 0000 A000 020008
2018-10-13 08:58:03,0.00,0.00,0.00,24.46,28.87,30.84,0.00,0.25,1029.31,2018.99,3679.98,3058.00,3518.96,0.00,0.00,0.00,0000 0000 0000 A000 020008
2018-10-13 09:03:04,0.00,0.00,0.00,24.47,28.87,30.87,-0.00,0.25,1029.31,2018.99,3679.98,3058.00,3518.97,0.00,0.00,0.00,0000 0000 0000 A000 020008
2018-10-13 09:08:05,0.00,0.00,0.00,24.47,28.87,30.91,0.00,0.25,1029.31,2018.99,3679.96,3058.00,3518.95,0.00,0.00,0.00,0000 0000 0000 A000 020008
2018-10-13 09:13:06,0.00,0.00,0.00,24.47,28.87,30.91,0.00,0.26,1029.32,2018.99,3679.97,3058.00,3518.97,0.00,0.00,0.00,0000 0000 0000 A000 020008
2018-10-13 09:18:08,0.00,0.00,0.00,24.47,28.87,30.90,-0.01,0.25,1029.32,2018.99,3679.95,3058.00,3518.89,0.00,0.00,0.00,0000 0000 0000 A000 020008
2018-10-13 09:23:09,0.00,0.00,0.00,24.47,28.87,30.88,-0.00,0.25,1029.32,2018.99,3679.86,3058.00,3518.69,0.00,0.00,0.00,0000 0000 0000 A000 020008
2018-10-13 09:28:10,0.00,0.00,0.00,24.47,28.87,30.85,0.00,0.25,1029.33,2018.98,3679.74,3058.00,3518.44,0.00,0.00,0.00,0000 0000 0000 A000 020008
2018-10-13 09:33:11,0.00,0.00,0.00,24.47,28.87,30.85,0.00,0.26,1029.34,2018.98,3679.77,3058.00,3518.48,0.00,0.00,0.00,0000 0000 0000 A000 020008
2018-10-13 09:38:12,0.00,0.00,0.00,24.48,28.88,30.88,0.00,0.25,1029.37,2018.99,3679.72,3058.00,3518.46,0.00,0.00,0.00,0000 0000 0000 A000 020008
2018-10-13 09:43:14,0.00,0.00,0.00,24.49,28.89,30.88,0.00,0.27,1029.37,2018.98,3679.28,3057.98,3518.11,0.00,0.00,0.00,0000 0000 0000 A000 020008
2018-10-13 09:48:15,0.00,0.00,0.00,24.49,28.89,30.88,0.00,0.30,1029.40,2018.98,3679.39,3057.99,3518.19,0.00,0.00,0.00,0000 0000 0000 A000 020008
2018-10-13 09:53:16,0.00,0.00,0.00,24.47,28.90,30.90,0.00,0.27,1029.43,2018.99,3679.45,3057.99,3518.15,0.00,0.00,0.00,0000 0000 0000 A000 020008
2018-10-13 09:58:18,0.00,0.00,0.00,24.47,28.90,30.90,0.00,0.27,1029.52,2018.98,3679.48,3057.99,3518.18,0.00,0.00,0.00,0000 0000 0000 A000 020008
2018-10-13 10:03:19,0.00,0.00,0.00,24.48,28.90,30.90,0.00,0.26,1029.63,2018.97,3679.44,3057.98,3518.20,0.00,0.00,0.00,0000 0000 0000 A000 020008
2018-10-13 10:08:20,0.00,0.00,0.00,24.49,28.90,30.86,0.00,0.25,1029.74,2018.98,3679.57,3057.99,3518.24,0.00,0.00,0.00,0000 0000 0000 A000 020008
2018-10-13 10:13:21,0.00,0.00,0.00,24.47,28.90,30.86,0.00,0.26,1029.77,2018.99,3679.63,3057.99,3518.29,0.00,0.00,0.00,0000 0000 0000 A000 020008
2018-10-13 10:18:22,0.00,0.00,0.00,24.47,28.90,30.91,0.00,0.26,1029.74,2018.98,3679.25,3057.98,3518.08,0.00,0.00,0.00,0000 0000 0000 A000 020008
2018-10-13 10:23:24,0.00,0.00,0.00,24.47,28.90,30.94,0.00,0.25,1029.75,2018.98,3679.20,3057.99,3518.06,0.00,0.00,0.00,0000 0000 0000 A000 020008
2018-10-13 10:28:25,0.00,0.00,0.00,24.47,28.90,30.86,0.00,0.25,1029.71,2018.98,3679.13,3057.98,3518.03,0.00,0.00,0.00,0000 0000 0000 A000 020008
2018-10-13 10:33:26,0.00,0.00,0.00,24.47,28.90,30.86,0.00,0.26,1029.70,2018.97,3679.13,3057.97,3518.04,0.00,0.00,0.00,0000 0000 0000 A000 020008
2018-10-13 10:38:27,0.00,0.00,0.00,24.47,28.90,30.89,-0.00,0.25,1029.76,2018.97,3679.10,3057.98,3518.04,0.00,0.00,0.00,0000 0000 0000 A000 020008
2018-10-13 10:43:28,0.00,0.00,0.00,24.47,28.90,30.94,-0.00,0.27,1029.71,2018.98,3679.15,3057.98,3518.06,0.00,0.00,0.00,0000 0000 0000 A000 020008
2018-10-13 10:48:30,0.00,0.00,0.00,24.47,28.91,30.91,-0.01,0.28,1029.74,2018.98,3679.25,3057.98,3518.07,0.00,0.00,0.00,0000 0000 0000 A000 020008
2018-10-13 10:53:31,0.00,0.00,0.00,24.48,28.92,30.93,-0.00,0.26,1029.75,2018.94,3679.04,3057.94,3518.02,0.00,0.00,0.00,0000 0000 0000 A000 020008
2018-10-13 10:58:32,0.00,0.00,0.00,24.48,28.92,30.95,-0.00,0.26,1029.78,2018.95,3679.02,3057.93,3518.01,0.00,0.00,0.00,0000 0000 0000 A000 020008
2018-10-13 11:03:33,0.00,0.00,0.00,24.48,28.92,30.94,0.00,0.27,1029.78,2018.93,3679.01,3057.91,3518.00,0.00,0.00,0.00,0000 0000 0000 A000 020008
2018-10-13 11:08:35,0.00,0.00,0.00,24.48,28.92,30.92,-0.00,0.26,1029.79,2018.96,3679.02,3057.93,3518.01,0.00,0.00,0.00,0000 0000 0000 A000 020008
2018-10-13 11:13:36,0.00,0.00,0.00,24.47,28.92,30.90,-0.00,0.27,1029.80,2018.96,3679.01,3057.93,3518.01,0.00,0.00,0.00,0000 0000 0000 A000 020008
2018-10-13 11:18:37,0.00,0.00,0.00,24.47,28.92,30.89,0.00,0.26,1029.80,2018.95,3679.02,3057.94,3518.01,0.00,0.00,0.00,0000 0000 0000 A000 020008
2018-10-13 11:23:38,0.00,0.00,0.00,24.47,28.92,30.88,-0.01,0.25,1029.80,2018.92,3679.01,3057.93,3518.01,0.00,0.00,0.00,0000 0000 0000 A000 020008
2018-10-13 11:28:39,0.00,0.00,0.00,24.47,28.92,30.85,-0.00,0.25,1029.80,2018.96,3679.04,3057.95,3518.00,0.00,0.00,0.00,0000 0000 0000 A000 020008
2018-10-13 11:33:40,0.00,0.00,0.00,24.47,28.92,30.87,-0.00,0.25,1029.80,2018.97,3679.08,3057.94,3518.00,0.00,0.00,0.00,0000 0000 0000 A000 020008
2018-10-13 11:38:42,0.00,0.00,0.00,24.47,28.92,30.86,-0.00,0.25,1029.80,2018.94,3679.00,3057.86,3518.00,0.00,0.00,0.00,0000 0000 0000 A000 020008
2018-10-13 11:43:43,0.00,0.00,0.00,24.47,28.92,30.81,0.00,0.27,1029.80,2018.95,3679.02,3057.92,3518.01,0.00,0.00,0.00,0000 0000 0000 A000 020008
2018-10-13 11:48:44,0.00,0.00,0.00,24.47,28.92,30.88,-0.00,0.35,1029.80,2018.94,3679.01,3057.93,3518.00,0.00,0.00,0.00,0000 0000 0000 A000 020008
2018-10-13 11:53:45,0.00,0.00,0.00,24.47,28.92,30.92,-0.01,0.27,1029.80,2018.90,3679.01,3057.78,3518.00,0.00,0.00,0.00,0000 0000 0000 A000 020008
2018-10-13 11:58:46,0.00,0.00,0.00,24.47,28.92,30.89,0.00,0.32,1029.80,2018.74,3679.00,3057.44,3518.00,0.00,0.00,0.00,0000 0000 0000 A000 020008
2018-10-13 12:03:47,0.00,0.00,0.00,24.47,28.92,30.95,-0.00,0.36,1029.80,2018.87,3679.00,3057.69,3518.00,0.00,0.00,0.00,0000 0000 0000 A000 020008
2018-10-13 12:08:49,0.00,0.00,0.00,24.46,28.92,30.91,-0.01,0.26,1029.81,2018.90,3679.00,3057.72,3518.00,0.00,0.00,0.00,0000 0000 0000 A000 020008
2018-10-13 12:13:50,0.00,0.00,0.00,24.45,28.92,30.86,-0.00,0.27,1029.81,2018.91,3679.02,3057.85,3518.00,0.00,0.00,0.00,0000 0000 0000 A000 020008
2018-10-13 12:18:51,0.00,0.00,0.00,24.45,28.92,30.91,-0.00,0.26,1029.84,2018.91,3679.01,3057.84,3518.00,0.00,0.00,0.00,0000 0000 0000 A000 020008
2018-10-13 12:23:52,0.00,0.00,0.00,24.45,28.92,30.90,0.00,0.26,1029.83,2018.89,3679.00,3057.78,3518.00,0.00,0.00,0.00,0000 0000 0000 A000 020008
2018-10-13 12:28:53,0.00,0.00,0.00,24.45,28.92,30.87,-0.00,0.28,1029.83,2018.78,3679.00,3057.64,3518.00,0.00,0.00,0.00,0000 0000 0000 A000 020008
2018-10-13 12:33:54,0.00,0.00,0.00,24.45,28.92,30.85,-0.00,0.27,1029.81,2018.91,3679.01,3057.88,3518.00,0.00,0.00,0.00,0000 0000 0000 A000 020008
2018-10-13 12:38:55,0.00,0.00,0.00,24.44,28.92,30.84,-0.00,0.25,1029.81,2018.94,3679.00,3057.90,3518.00,0.00,0.00,0.00,0000 0000 0000 A000 020008
2018-10-13 12:43:56,0.00,0.00,0.00,24.43,28.92,30.80,-0.00,0.25,1029.82,2018.92,3679.01,3057.87,3518.00,0.00,0.00,0.00,0000 0000 0000 A000 020008
2018-10-13 12:48:57,0.00,0.00,0.00,24.43,28.92,30.83,-0.00,0.25,1029.83,2018.97,3679.04,3057.95,3518.01,0.00,0.00,0.00,0000 0000 0000 A000 020008
2018-10-13 12:53:59,0.00,0.00,0.00,24.43,28.92,30.83,-0.01,0.26,1029.82,2018.95,3679.02,3057.95,3518.01,0.00,0.00,0.00,0000 0000 0000 A000 020008
2018-10-13 12:59:00,0.00,0.00,0.00,24.43,28.92,30.82,-0.01,0.25,1029.84,2018.96,3679.01,3057.91,3518.00,0.00,0.00,0.00,0000 0000 0000 A000 020008
2018-10-13 13:04:01,0.00,0.00,0.00,24.42,28.91,30.79,-0.00,0.25,1029.86,2018.92,3679.01,3057.93,3518.00,0.00,0.00,0.00,0000 0000 0000 A000 020008
2018-10-13 13:09:02,0.00,0.00,0.00,24.42,28.90,30.79,-0.00,0.25,1029.85,2018.90,3679.01,3057.90,3518.00,0.00,0.00,0.00,0000 0000 0000 A000 020008
2018-10-13 13:14:04,0.00,0.00,0.00,24.42,28.90,30.85,0.00,0.25,1029.84,2018.93,3679.01,3057.91,3518.00,0.00,0.00,0.00,0000 0000 0000 A000 020008
2018-10-13 13:19:05,0.00,0.00,0.00,24.42,28.90,30.86,-0.00,0.25,1029.84,2018.89,3679.01,3057.86,3518.00,0.00,0.00,0.00,0000 0000 0000 A000 020008
2018-10-13 13:24:06,0.00,0.00,0.00,24.42,28.90,30.82,-0.00,0.26,1029.86,2018.92,3679.01,3057.92,3518.00,0.00,0.00,0.00,0000 0000 0000 A000 020008
2018-10-13 13:29:06,0.00,0.00,0.00,24.42,28.90,30.78,-0.00,0.25,1029.87,2018.93,3679.03,3057.94,3518.00,0.00,0.00,0.00,0000 0000 0000 A000 020008